******** Week 385 almanac for PRN-01 ******** ID: 01 Health: 000 Eccentricity: 0.1902103424E-002 Time of Applicability(s): 405504.0000 Orbital Inclination(rad): 0.9569667240 Rate of Right Ascen(r/s): -0.7726036106E-008 SQRT(A) (m 1/2): 5153.548340 Right Ascen at Week(rad): 0.9898220758E-003 Argument of Perigee(rad): 0.159186085 Mean Anom(rad): 0.5756742276E+000 Af0(s): 0.1869201660E-003 Af1(s/s): -0.1091393642E-010 week: 385 ******** Week 385 almanac for PRN-02 ******** ID: 02 Health: 000 Eccentricity: 0.1699066162E-001 Time of Applicability(s): 405504.0000 Orbital Inclination(rad): 0.9617484297 Rate of Right Ascen(r/s): -0.7646032774E-008 SQRT(A) (m 1/2): 5153.670898 Right Ascen at Week(rad): -0.1606578975E+000 Argument of Perigee(rad): -0.718583113 Mean Anom(rad): 0.1889489449E+001 Af0(s): 0.1649856567E-003 Af1(s/s): 0.7275957614E-011 week: 385 ******** Week 385 almanac for PRN-03 ******** ID: 03 Health: 000 Eccentricity: 0.6957054138E-002 Time of Applicability(s): 405504.0000 Orbital Inclination(rad): 0.9952503304 Rate of Right Ascen(r/s): -0.7748894201E-008 SQRT(A) (m 1/2): 5153.701172 Right Ascen at Week(rad): 0.9941581182E+000 Argument of Perigee(rad): 1.295528418 Mean Anom(rad): -0.1624012277E+001 Af0(s): 0.3004074097E-003 Af1(s/s): -0.2182787284E-010 week: 385 ******** Week 385 almanac for PRN-04 ******** ID: 04 Health: 000 Eccentricity: 0.3909587860E-002 Time of Applicability(s): 405504.0000 Orbital Inclination(rad): 0.9724503426 Rate of Right Ascen(r/s): -0.8103194673E-008 SQRT(A) (m 1/2): 5153.615234 Right Ascen at Week(rad): 0.2062148799E+001 Argument of Perigee(rad): -2.911398913 Mean Anom(rad): 0.1418761454E+001 Af0(s): 0.6484985352E-004 Af1(s/s): 0.0000000000E+000 week: 385 ******** Week 385 almanac for PRN-05 ******** ID: 05 Health: 000 Eccentricity: 0.5448818207E-002 Time of Applicability(s): 405504.0000 Orbital Inclination(rad): 0.9816482352 Rate of Right Ascen(r/s): -0.7874613724E-008 SQRT(A) (m 1/2): 5153.508789 Right Ascen at Week(rad): 0.9320685979E+000 Argument of Perigee(rad): 1.500375149 Mean Anom(rad): 0.1927682425E+001 Af0(s): -0.2365112305E-003 Af1(s/s): 0.0000000000E+000 week: 385 ******** Week 385 almanac for PRN-06 ******** ID: 06 Health: 000 Eccentricity: 0.3757953644E-002 Time of Applicability(s): 405504.0000 Orbital Inclination(rad): 0.9856749347 Rate of Right Ascen(r/s): -0.7440309919E-008 SQRT(A) (m 1/2): 5153.708008 Right Ascen at Week(rad): -0.4347352486E-001 Argument of Perigee(rad): -0.567561282 Mean Anom(rad): -0.2749825345E+000 Af0(s): -0.5397796631E-003 Af1(s/s): 0.1091393642E-010 week: 385 ******** Week 385 almanac for PRN-07 ******** ID: 07 Health: 000 Eccentricity: 0.2091598511E-001 Time of Applicability(s): 405504.0000 Orbital Inclination(rad): 0.9517535862 Rate of Right Ascen(r/s): -0.7771752296E-008 SQRT(A) (m 1/2): 5153.729004 Right Ascen at Week(rad): 0.3069140524E+001 Argument of Perigee(rad): -1.952169567 Mean Anom(rad): -0.1094061239E+001 Af0(s): -0.2193450928E-003 Af1(s/s): -0.3637978807E-011 week: 385 ******** Week 385 almanac for PRN-08 ******** ID: 08 Health: 000 Eccentricity: 0.1177930832E-001 Time of Applicability(s): 405504.0000 Orbital Inclination(rad): 0.9408659178 Rate of Right Ascen(r/s): -0.8331775623E-008 SQRT(A) (m 1/2): 5153.698730 Right Ascen at Week(rad): -0.1170667400E+001 Argument of Perigee(rad): 0.548653920 Mean Anom(rad): 0.1634529184E+001 Af0(s): 0.3623962402E-003 Af1(s/s): -0.1091393642E-010 week: 385 ******** Week 385 almanac for PRN-09 ******** ID: 09 Health: 000 Eccentricity: 0.3804206848E-002 Time of Applicability(s): 405504.0000 Orbital Inclination(rad): 0.9667338673 Rate of Right Ascen(r/s): -0.8194627053E-008 SQRT(A) (m 1/2): 5153.624512 Right Ascen at Week(rad): 0.1996686468E+001 Argument of Perigee(rad): 2.054764269 Mean Anom(rad): 0.2256444918E+001 Af0(s): 0.6923675537E-003 Af1(s/s): -0.7275957614E-011 week: 385 ******** Week 385 almanac for PRN-10 ******** ID: 10 Health: 000 Eccentricity: 0.1128530502E-001 Time of Applicability(s): 405504.0000 Orbital Inclination(rad): 0.9947529851 Rate of Right Ascen(r/s): -0.7783181344E-008 SQRT(A) (m 1/2): 5153.605469 Right Ascen at Week(rad): 0.9916492956E+000 Argument of Perigee(rad): -2.265936049 Mean Anom(rad): -0.2525865648E+001 Af0(s): -0.5435943604E-003 Af1(s/s): 0.7275957614E-011 week: 385 ******** Week 385 almanac for PRN-11 ******** ID: 11 Health: 000 Eccentricity: 0.2632617950E-002 Time of Applicability(s): 405504.0000 Orbital Inclination(rad): 0.9625753412 Rate of Right Ascen(r/s): -0.7646032774E-008 SQRT(A) (m 1/2): 5153.624512 Right Ascen at Week(rad): -0.2861608203E-001 Argument of Perigee(rad): -2.329771521 Mean Anom(rad): 0.9333853646E+000 Af0(s): -0.2288818359E-003 Af1(s/s): 0.1091393642E-010 week: 385 ******** Week 385 almanac for PRN-12 ******** ID: 12 Health: 000 Eccentricity: 0.8748531342E-002 Time of Applicability(s): 405504.0000 Orbital Inclination(rad): 0.9584527679 Rate of Right Ascen(r/s): -0.8000333246E-008 SQRT(A) (m 1/2): 5153.627930 Right Ascen at Week(rad): -0.2095449589E+001 Argument of Perigee(rad): 1.590789385 Mean Anom(rad): -0.1864448411E+001 Af0(s): -0.6036758423E-003 Af1(s/s): 0.0000000000E+000 week: 385 ******** Week 385 almanac for PRN-13 ******** ID: 13 Health: 063 Eccentricity: 0.2312660217E-002 Time of Applicability(s): 405504.0000 Orbital Inclination(rad): 0.9590879318 Rate of Right Ascen(r/s): -0.7943188009E-008 SQRT(A) (m 1/2): 5153.507324 Right Ascen at Week(rad): -0.2203885103E+001 Argument of Perigee(rad): 1.796407974 Mean Anom(rad): -0.1941048581E+001 Af0(s): 0.4348754883E-003 Af1(s/s): 0.3637978807E-011 week: 385 ******** Week 385 almanac for PRN-14 ******** ID: 14 Health: 000 Eccentricity: 0.7461071014E-002 Time of Applicability(s): 405504.0000 Orbital Inclination(rad): 0.9418306479 Rate of Right Ascen(r/s): -0.8160339911E-008 SQRT(A) (m 1/2): 5153.596191 Right Ascen at Week(rad): -0.2152951024E+001 Argument of Perigee(rad): -2.675569964 Mean Anom(rad): -0.1968938868E+001 Af0(s): 0.7505416870E-003 Af1(s/s): 0.0000000000E+000 week: 385 ******** Week 385 almanac for PRN-15 ******** ID: 15 Health: 000 Eccentricity: 0.1714468002E-001 Time of Applicability(s): 405504.0000 Orbital Inclination(rad): 0.9448087278 Rate of Right Ascen(r/s): -0.8468924193E-008 SQRT(A) (m 1/2): 5153.708496 Right Ascen at Week(rad): 0.1848324386E+001 Argument of Perigee(rad): 1.555071151 Mean Anom(rad): 0.5970649455E+000 Af0(s): 0.4396438599E-003 Af1(s/s): 0.3637978807E-011 week: 385 ******** Week 385 almanac for PRN-16 ******** ID: 16 Health: 000 Eccentricity: 0.1513385773E-001 Time of Applicability(s): 405504.0000 Orbital Inclination(rad): 0.9574880378 Rate of Right Ascen(r/s): -0.8046049436E-008 SQRT(A) (m 1/2): 5153.672363 Right Ascen at Week(rad): -0.2078758560E+001 Argument of Perigee(rad): 0.943049144 Mean Anom(rad): 0.2716734653E+001 Af0(s): 0.3232955933E-003 Af1(s/s): 0.7275957614E-011 week: 385 ******** Week 385 almanac for PRN-17 ******** ID: 17 Health: 000 Eccentricity: 0.1265382767E-001 Time of Applicability(s): 405504.0000 Orbital Inclination(rad): 0.9564993392 Rate of Right Ascen(r/s): -0.8126052768E-008 SQRT(A) (m 1/2): 5153.635254 Right Ascen at Week(rad): -0.1063251294E+001 Argument of Perigee(rad): -1.089903087 Mean Anom(rad): 0.1656922457E+001 Af0(s): -0.1935958862E-003 Af1(s/s): -0.3637978807E-011 week: 385 ******** Week 385 almanac for PRN-18 ******** ID: 18 Health: 000 Eccentricity: 0.6472110748E-002 Time of Applicability(s): 405504.0000 Orbital Inclination(rad): 0.9706407246 Rate of Right Ascen(r/s): -0.7588887536E-008 SQRT(A) (m 1/2): 5153.572754 Right Ascen at Week(rad): -0.5102396106E-001 Argument of Perigee(rad): -2.836955529 Mean Anom(rad): -0.3077593897E+000 Af0(s): -0.2698898315E-003 Af1(s/s): 0.7275957614E-011 week: 385 ******** Week 385 almanac for PRN-19 ******** ID: 19 Health: 000 Eccentricity: 0.1178741455E-001 Time of Applicability(s): 405504.0000 Orbital Inclination(rad): 0.9556544514 Rate of Right Ascen(r/s): -0.8114623721E-008 SQRT(A) (m 1/2): 5153.519531 Right Ascen at Week(rad): -0.1019493144E+001 Argument of Perigee(rad): 3.052579823 Mean Anom(rad): -0.3020232902E+001 Af0(s): 0.7047653198E-003 Af1(s/s): 0.0000000000E+000 week: 385 ******** Week 385 almanac for PRN-20 ******** ID: 20 Health: 000 Eccentricity: 0.1859188080E-002 Time of Applicability(s): 405504.0000 Orbital Inclination(rad): 0.9621019644 Rate of Right Ascen(r/s): -0.8263201338E-008 SQRT(A) (m 1/2): 5153.568848 Right Ascen at Week(rad): 0.2001394396E+001 Argument of Perigee(rad): -1.724565917 Mean Anom(rad): -0.2025838470E+001 Af0(s): 0.2717971802E-003 Af1(s/s): 0.1091393642E-010 week: 385 ******** Week 385 almanac for PRN-21 ******** ID: 21 Health: 000 Eccentricity: 0.8049011230E-003 Time of Applicability(s): 405504.0000 Orbital Inclination(rad): 0.9646546043 Rate of Right Ascen(r/s): -0.8103194673E-008 SQRT(A) (m 1/2): 5153.563477 Right Ascen at Week(rad): 0.9950812780E+000 Argument of Perigee(rad): -0.127241759 Mean Anom(rad): -0.2226175013E+001 Af0(s): 0.3747940063E-003 Af1(s/s): -0.7275957614E-011 week: 385 ******** Week 385 almanac for PRN-22 ******** ID: 22 Health: 000 Eccentricity: 0.1172542572E-001 Time of Applicability(s): 405504.0000 Orbital Inclination(rad): 0.9569607319 Rate of Right Ascen(r/s): -0.8057478483E-008 SQRT(A) (m 1/2): 5153.659180 Right Ascen at Week(rad): -0.2075368522E+001 Argument of Perigee(rad): -0.977292194 Mean Anom(rad): 0.2260248411E+001 Af0(s): 0.6771087646E-004 Af1(s/s): 0.7275957614E-011 week: 385 ******** Week 385 almanac for PRN-23 ******** ID: 23 Health: 000 Eccentricity: 0.6628990173E-002 Time of Applicability(s): 405504.0000 Orbital Inclination(rad): 0.9896836580 Rate of Right Ascen(r/s): -0.7794610391E-008 SQRT(A) (m 1/2): 5153.691406 Right Ascen at Week(rad): 0.9587005417E+000 Argument of Perigee(rad): -2.736435596 Mean Anom(rad): -0.1542297091E+001 Af0(s): 0.6837844849E-003 Af1(s/s): 0.3637978807E-011 week: 385 ******** Week 385 almanac for PRN-24 ******** ID: 24 Health: 000 Eccentricity: 0.1866006851E-001 Time of Applicability(s): 405504.0000 Orbital Inclination(rad): 0.9358804803 Rate of Right Ascen(r/s): -0.7931758961E-008 SQRT(A) (m 1/2): 5153.681641 Right Ascen at Week(rad): 0.2957511588E+001 Argument of Perigee(rad): 1.174049948 Mean Anom(rad): -0.1163780590E+000 Af0(s): 0.1802444458E-003 Af1(s/s): 0.1818989404E-010 week: 385 ******** Week 385 almanac for PRN-25 ******** ID: 25 Health: 000 Eccentricity: 0.1302480698E-001 Time of Applicability(s): 405504.0000 Orbital Inclination(rad): 0.9469658883 Rate of Right Ascen(r/s): -0.8068907531E-008 SQRT(A) (m 1/2): 5153.592285 Right Ascen at Week(rad): -0.2191299420E+001 Argument of Perigee(rad): 1.165471115 Mean Anom(rad): -0.1920577278E+001 Af0(s): 0.3938674927E-003 Af1(s/s): -0.3637978807E-011 week: 385 ******** Week 385 almanac for PRN-26 ******** ID: 26 Health: 000 Eccentricity: 0.1132345200E-001 Time of Applicability(s): 405504.0000 Orbital Inclination(rad): 0.9277911285 Rate of Right Ascen(r/s): -0.8263201338E-008 SQRT(A) (m 1/2): 5153.536621 Right Ascen at Week(rad): -0.2269192388E+001 Argument of Perigee(rad): 0.725923451 Mean Anom(rad): -0.2777540738E+001 Af0(s): -0.3910064697E-003 Af1(s/s): 0.0000000000E+000 week: 385 ******** Week 385 almanac for PRN-27 ******** ID: 27 Health: 000 Eccentricity: 0.1438665390E-001 Time of Applicability(s): 405504.0000 Orbital Inclination(rad): 0.9499799209 Rate of Right Ascen(r/s): -0.8228914196E-008 SQRT(A) (m 1/2): 5153.610352 Right Ascen at Week(rad): -0.1137107076E+001 Argument of Perigee(rad): 0.902446216 Mean Anom(rad): 0.1806465361E+001 Af0(s): 0.9536743164E-006 Af1(s/s): 0.0000000000E+000 week: 385 ******** Week 385 almanac for PRN-28 ******** ID: 28 Health: 000 Eccentricity: 0.5035400391E-003 Time of Applicability(s): 405504.0000 Orbital Inclination(rad): 0.9626472466 Rate of Right Ascen(r/s): -0.7668890869E-008 SQRT(A) (m 1/2): 5153.606445 Right Ascen at Week(rad): 0.3045412882E+001 Argument of Perigee(rad): -0.178140635 Mean Anom(rad): -0.5339975874E+000 Af0(s): -0.4310607910E-003 Af1(s/s): 0.1091393642E-010 week: 385 ******** Week 385 almanac for PRN-29 ******** ID: 29 Health: 000 Eccentricity: 0.3654956818E-002 Time of Applicability(s): 405504.0000 Orbital Inclination(rad): 0.9592077740 Rate of Right Ascen(r/s): -0.8068907531E-008 SQRT(A) (m 1/2): 5153.608887 Right Ascen at Week(rad): -0.1046028840E+001 Argument of Perigee(rad): 2.900819089 Mean Anom(rad): 0.1475185806E+001 Af0(s): -0.2546310425E-003 Af1(s/s): 0.7275957614E-011 week: 385 ******** Week 385 almanac for PRN-30 ******** ID: 30 Health: 000 Eccentricity: 0.8202075958E-002 Time of Applicability(s): 405504.0000 Orbital Inclination(rad): 0.9370669185 Rate of Right Ascen(r/s): -0.7908900866E-008 SQRT(A) (m 1/2): 5153.616211 Right Ascen at Week(rad): 0.3057529308E+001 Argument of Perigee(rad): -2.259247354 Mean Anom(rad): -0.1373104178E+001 Af0(s): 0.3442764282E-003 Af1(s/s): 0.1091393642E-010 week: 385 ******** Week 385 almanac for PRN-31 ******** ID: 31 Health: 000 Eccentricity: 0.1102733612E-001 Time of Applicability(s): 405504.0000 Orbital Inclination(rad): 0.9554567116 Rate of Right Ascen(r/s): -0.7691748964E-008 SQRT(A) (m 1/2): 5153.610352 Right Ascen at Week(rad): 0.3094112653E+001 Argument of Perigee(rad): 0.998121152 Mean Anom(rad): -0.2180075445E+001 Af0(s): -0.1249313354E-003 Af1(s/s): 0.3637978807E-011 week: 385 ******** Week 385 almanac for PRN-32 ******** ID: 32 Health: 000 Eccentricity: 0.9521007538E-002 Time of Applicability(s): 405504.0000 Orbital Inclination(rad): 0.9696879787 Rate of Right Ascen(r/s): -0.8160339911E-008 SQRT(A) (m 1/2): 5153.537109 Right Ascen at Week(rad): 0.2014288673E+001 Argument of Perigee(rad): -1.975094266 Mean Anom(rad): 0.2339105360E+001 Af0(s): 0.2384185791E-003 Af1(s/s): 0.1818989404E-010 week: 385